EW9355 Weather Reports


Display with metric or nautical units.
time (UTC)temp
F
wind
direction
speed
MPH
gust
MPH
rain 1hr
in
rain 24hr
in
rain mn
in
humidity
%
barometer
mb
20260502193017 76 119 0.0 2.0 0.00 0.00 0.00 32 1018.4
20260502191515 75 30 0.0 6.0 0.00 0.00 0.00 32 1018.6
20260502190018 76 17 0.0 5.0 0.00 0.00 0.00 34 1018.5
20260502184511 75 76 0.0 3.0 0.00 0.00 0.00 34 1018.8
20260502183010 75 255 1.0 5.0 0.00 0.00 0.00 33 1019.1
20260502181508 74 5 0.0 1.0 0.00 0.00 0.00 33 1019.3
20260502163109 71 90 0.0 5.0 0.00 0.00 0.00 39 1020.2
20260502161618 70 284 1.0 7.0 0.00 0.00 0.00 43 1020.1
20260502151540 66 69 0.0 1.0 0.00 0.00 0.00 52 1020.0
20260502123008 51 138 0.0 0.0 0.00 0.00 0.00 91 1018.8
20260502121505 51 138 0.0 0.0 0.00 0.00 0.00 90 1018.3
20260502114503 51 138 0.0 0.0 0.00 0.01 0.00 90 1018.1
20260502113135 51 138 0.0 0.0 0.00 0.01 0.00 90 1017.6
20260502111558 51 138 0.0 0.0 0.00 0.01 0.00 90 1017.5
20260502110058 51 138 0.0 0.0 0.00 0.01 0.00 90 1017.3
20260502104556 51 138 0.0 0.0 0.00 0.01 0.00 89 1017.4
20260502103054 51 138 0.0 0.0 0.00 0.01 0.00 89 1017.2
20260502101553 51 138 0.0 0.0 0.00 0.01 0.00 89 1017.1
20260502070040 53 138 0.0 0.0 0.00 0.01 0.00 86 1016.8
20260502064545 54 138 0.0 0.0 0.00 0.01 0.00 86 1016.9
20260502063035 54 138 0.0 0.0 0.00 0.01 0.00 85 1016.9
20260502061531 54 138 0.0 0.0 0.00 0.01 0.00 85 1016.9
20260502060032 55 138 0.0 0.0 0.00 0.01 0.00 85 1016.9
20260502054534 55 138 0.0 0.0 0.00 0.01 0.00 84 1016.8
20260502053027 55 138 0.0 0.0 0.00 0.01 0.00 84 1017.0
20260502051529 56 138 0.0 0.0 0.00 0.01 0.00 83 1017.0
20260502050023 56 138 0.0 0.0 0.00 0.01 0.00 82 1016.9
20260502044521 57 138 0.0 0.0 0.00 0.01 0.01 81 1016.9
20260502043024 57 138 0.0 0.0 0.00 0.01 0.01 80 1016.9
20260502041630 58 138 0.0 0.0 0.00 0.01 0.01 79 1016.8
20260502040016 58 138 0.0 0.0 0.00 0.01 0.01 78 1016.7
20260502034516 59 138 0.0 0.0 0.00 0.01 0.01 77 1016.7
20260502033014 59 138 0.0 0.0 0.00 0.01 0.01 76 1016.8
20260502031512 60 138 0.0 0.0 0.00 0.01 0.01 75 1016.4
20260502030011 60 138 0.0 0.0 0.00 0.01 0.01 74 1016.2
20260502024514 60 138 0.0 0.0 0.00 0.01 0.01 73 1016.3
20260502023010 60 138 0.0 0.0 0.00 0.01 0.01 72 1016.1
20260502021506 61 138 0.0 0.0 0.00 0.01 0.01 71 1015.8
20260502020005 61 138 0.0 0.0 0.00 0.01 0.01 71 1015.6
20260502014506 61 138 0.0 0.0 0.00 0.01 0.01 70 1015.4
20260502013008 61 138 0.0 0.0 0.00 0.01 0.01 70 1015.0
20260502011504 62 138 0.0 0.0 0.00 0.01 0.01 68 1014.7
20260502010008 62 138 0.0 0.0 0.00 0.01 0.01 67 1014.4
20260502004506 62 138 0.0 0.0 0.00 0.01 0.01 66 1014.4
20260502003002 62 138 0.0 0.0 0.00 0.01 0.01 66 1014.2
20260502001605 63 138 0.0 0.0 0.00 0.01 0.01 65 1014.3
20260502000114 63 139 0.0 0.0 0.00 0.01 0.01 63 1014.1
20260501234603 63 139 0.0 0.0 0.00 0.01 0.01 62 1013.7
20260501233104 63 133 0.0 0.0 0.00 0.01 0.01 61 1013.4
20260501231600 64 75 0.0 0.0 0.00 0.01 0.01 60 1013.4
20260501230104 64 84 0.0 0.0 0.00 0.01 0.01 59 1013.1
20260501224602 64 103 0.0 0.0 0.00 0.01 0.01 59 1013.1
20260501223058 64 85 0.0 0.0 0.00 0.01 0.01 59 1013.1
20260501221600 64 93 0.0 3.0 0.00 0.01 0.01 58 1013.2
20260501220105 63 86 0.0 6.0 0.00 0.01 0.01 58 1013.0
20260501214557 63 52 0.0 6.0 0.00 0.01 0.01 58 1013.1
20260501213105 64 97 0.0 7.0 0.00 0.01 0.01 59 1013.1
20260501211600 64 103 0.0 8.0 0.00 0.01 0.01 58 1013.1
20260501210055 64 103 0.0 2.0 0.00 0.01 0.01 58 1013.0
20260501204555 64 94 0.0 3.0 0.00 0.01 0.01 57 1013.7
20260501203058 64 92 0.0 6.0 0.00 0.01 0.01 56 1013.7
20260501201558 64 76 0.0 6.0 0.00 0.01 0.01 56 1014.0
20260501200158 64 92 0.0 10.0 0.00 0.01 0.01 55 1013.9
20260501194614 63 113 0.0 7.0 0.00 0.01 0.01 54 1013.5